• în România
  • Lista ţărilor
  • Pe 7 zile
  • Temperatura apei
  • Hartă satelitară
  • Meteo pe hartă
  • Widget-uri
  • user-avatar
    Intrare

    Meteo pe oră la Dudachnyy

    Astăzi, 23 Octombrie, Marţi

    Timp Temperatura Precipitaţii Vânt Presiune Umiditate
    00:00 +3°C° 0 mm 3 m/s 761 mmHg 65%
    01:00 +4°C° 0 mm 3 m/s 760 mmHg 65%
    02:00 +3°C° 0 mm 3 m/s 760 mmHg 65%
    03:00 +3°C° 0 mm 3 m/s 759 mmHg 68%
    04:00 +3°C° 0 mm 3 m/s 759 mmHg 67%
    05:00 +3°C° 0 mm 3 m/s 759 mmHg 66%
    06:00 +3°C° 0 mm 4 m/s 758 mmHg 65%
    07:00 +4°C° 0 mm 4 m/s 758 mmHg 61%
    08:00 +5°C° 0 mm 4 m/s 757 mmHg 57%
    09:00 +6°C° 0 mm 5 m/s 757 mmHg 53%
    10:00 +7°C° 0 mm 5 m/s 756 mmHg 48%
    11:00 +8°C° 0 mm 5 m/s 756 mmHg 44%
    12:00 +10°C° 0 mm 6 m/s 755 mmHg 39%
    13:00 +10°C° 0 mm 6 m/s 754 mmHg 40%
    14:00 +9°C° 0 mm 5 m/s 754 mmHg 41%
    15:00 +9°C° 0 mm 5 m/s 753 mmHg 41%
    16:00 +9°C° 0.1 mm 5 m/s 752 mmHg 47%
    17:00 +8°C° 0.1 mm 6 m/s 752 mmHg 53%
    18:00 +8°C° 0.1 mm 6 m/s 751 mmHg 59%
    19:00 +9°C° 0 mm 5 m/s 750 mmHg 59%
    20:00 +9°C° 0 mm 5 m/s 750 mmHg 58%
    21:00 +9°C° 0 mm 5 m/s 749 mmHg 58%
    22:00 +9°C° 0 mm 5 m/s 749 mmHg 60%
    23:00 +10°C° 0 mm 4 m/s 748 mmHg 62%

    Mâine, 24 Octombrie, Miercuri

    Timp Temperatura Precipitaţii Vânt Presiune Umiditate
    00:00 +10°C° 0 mm 4 m/s 748 mmHg 64%
    01:00 +10°C° 0 mm 4 m/s 748 mmHg 67%
    02:00 +10°C° 0 mm 4 m/s 748 mmHg 70%
    03:00 +10°C° 0 mm 4 m/s 748 mmHg 73%
    04:00 +10°C° 0 mm 4 m/s 747 mmHg 78%
    05:00 +8°C° 0 mm 4 m/s 747 mmHg 83%
    06:00 +7°C° 0 mm 4 m/s 747 mmHg 88%
    07:00 +8°C° 0 mm 4 m/s 747 mmHg 86%
    08:00 +9°C° 0 mm 5 m/s 747 mmHg 83%
    09:00 +10°C° 0 mm 5 m/s 747 mmHg 80%
    10:00 +11°C° 0 mm 6 m/s 746 mmHg 74%
    11:00 +13°C° 0 mm 6 m/s 746 mmHg 67%
    12:00 +14°C° 0 mm 6 m/s 746 mmHg 61%
    13:00 +14°C° 0 mm 6 m/s 746 mmHg 58%
    14:00 +14°C° 0 mm 6 m/s 746 mmHg 55%
    15:00 +14°C° 0 mm 5 m/s 745 mmHg 52%
    16:00 +13°C° 0 mm 5 m/s 745 mmHg 57%
    17:00 +12°C° 0 mm 4 m/s 745 mmHg 62%
    18:00 +11°C° 0 mm 4 m/s 745 mmHg 68%
    19:00 +11°C° 0 mm 4 m/s 745 mmHg 71%
    20:00 +10°C° 0 mm 5 m/s 745 mmHg 73%
    21:00 +9°C° 0 mm 5 m/s 745 mmHg 76%
    22:00 +10°C° 0 mm 5 m/s 745 mmHg 74%
    23:00 +10°C° 0 mm 6 m/s 745 mmHg 73%

    Poimâine, 25 Octombrie, Joi

    Timp Temperatura Precipitaţii Vânt Presiune Umiditate
    00:00 +10°C° 0 mm 6 m/s 744 mmHg 71%
    01:00 +10°C° 0.5 mm 6 m/s 744 mmHg 74%
    02:00 +10°C° 0.5 mm 6 m/s 744 mmHg 78%
    03:00 +10°C° 0.5 mm 6 m/s 743 mmHg 81%
    04:00 +10°C° 0.1 mm 6 m/s 743 mmHg 81%
    05:00 +10°C° 0.1 mm 7 m/s 743 mmHg 80%
    06:00 +11°C° 0.1 mm 7 m/s 742 mmHg 80%
    07:00 +11°C° 0.2 mm 7 m/s 742 mmHg 72%
    08:00 +11°C° 0.2 mm 7 m/s 742 mmHg 64%
    09:00 +12°C° 0.2 mm 7 m/s 741 mmHg 56%
    10:00 +12°C° 0.1 mm 7 m/s 741 mmHg 55%
    11:00 +14°C° 0.1 mm 7 m/s 741 mmHg 54%
    12:00 +15°C° 0.1 mm 8 m/s 740 mmHg 53%
    13:00 +16°C° 0 mm 7 m/s 740 mmHg 55%
    14:00 +16°C° 0 mm 6 m/s 739 mmHg 57%
    15:00 +17°C° 0 mm 6 m/s 739 mmHg 58%
    16:00 +16°C° 0 mm 5 m/s 738 mmHg 62%
    17:00 +17°C° 0 mm 4 m/s 738 mmHg 66%
    18:00 +16°C° 0 mm 3 m/s 738 mmHg 70%
    19:00 +14°C° 0.1 mm 3 m/s 738 mmHg 74%
    20:00 +14°C° 0.1 mm 3 m/s 738 mmHg 77%
    21:00 +13°C° 0.1 mm 3 m/s 737 mmHg 81%
    22:00 +13°C° 0.4 mm 3 m/s 738 mmHg 84%
    23:00 +13°C° 0.4 mm 2 m/s 738 mmHg 87%

    26 Octombrie, Vineri

    Timp Temperatura Precipitaţii Vânt Presiune Umiditate
    00:00 +13°C° 0.4 mm 2 m/s 738 mmHg 90%
    01:00 +11°C° 1.8 mm 3 m/s 738 mmHg 90%
    02:00 +11°C° 1.8 mm 3 m/s 739 mmHg 89%
    03:00 +10°C° 1.8 mm 4 m/s 739 mmHg 89%
    04:00 +10°C° 0.4 mm 4 m/s 739 mmHg 84%
    05:00 +8°C° 0.4 mm 4 m/s 740 mmHg 80%
    06:00 +7°C° 0.4 mm 4 m/s 740 mmHg 76%
    07:00 +8°C° 0 mm 4 m/s 741 mmHg 73%
    08:00 +8°C° 0 mm 4 m/s 742 mmHg 71%
    09:00 +8°C° 0 mm 5 m/s 742 mmHg 68%
    10:00 +9°C° 0 mm 5 m/s 743 mmHg 64%
    11:00 +9°C° 0 mm 5 m/s 743 mmHg 59%
    12:00 +10°C° 0 mm 5 m/s 743 mmHg 55%
    13:00 +10°C° 0 mm 5 m/s 744 mmHg 55%
    14:00 +10°C° 0 mm 5 m/s 744 mmHg 54%
    15:00 +10°C° 0 mm 4 m/s 744 mmHg 54%
    16:00 +10°C° 0.1 mm 4 m/s 744 mmHg 57%
    17:00 +8°C° 0.1 mm 4 m/s 745 mmHg 61%
    18:00 +7°C° 0.1 mm 4 m/s 745 mmHg 65%
    19:00 +7°C° 0.1 mm 4 m/s 746 mmHg 66%
    20:00 +6°C° 0.1 mm 4 m/s 746 mmHg 68%
    21:00 +5°C° 0.1 mm 4 m/s 746 mmHg 70%
    22:00 +5°C° 0 mm 4 m/s 747 mmHg 71%
    23:00 +4°C° 0 mm 4 m/s 747 mmHg 73%

    27 Octombrie, Sâmbătă

    Timp Temperatura Precipitaţii Vânt Presiune Umiditate
    00:00 +3°C° 0 mm 4 m/s 748 mmHg 74%
    01:00 +3°C° 0 mm 3 m/s 748 mmHg 77%
    02:00 +2°C° 0 mm 3 m/s 748 mmHg 79%
    03:00 +2°C° 0 mm 3 m/s 749 mmHg 82%
    04:00 +2°C° 0 mm 3 m/s 749 mmHg 83%
    05:00 +1°C° 0 mm 3 m/s 749 mmHg 83%
    06:00 +1°C° 0 mm 3 m/s 750 mmHg 84%
    07:00 +2°C° 0 mm 3 m/s 750 mmHg 77%
    08:00 +3°C° 0 mm 4 m/s 750 mmHg 70%
    09:00 +3°C° 0 mm 5 m/s 751 mmHg 63%
    10:00 +5°C° 0 mm 5 m/s 751 mmHg 60%
    11:00 +5°C° 0 mm 6 m/s 751 mmHg 56%
    12:00 +7°C° 0 mm 6 m/s 751 mmHg 52%
    13:00 +5°C° 0.1 mm 6 m/s 752 mmHg 55%
    14:00 +5°C° 0.1 mm 6 m/s 752 mmHg 57%
    15:00 +5°C° 0.1 mm 6 m/s 752 mmHg 60%
    16:00 +5°C° 0 mm 5 m/s 753 mmHg 62%
    17:00 +3°C° 0 mm 5 m/s 753 mmHg 64%
    18:00 +3°C° 0 mm 4 m/s 754 mmHg 66%
    19:00 +3°C° 0 mm 4 m/s 754 mmHg 69%
    20:00 +2°C° 0 mm 3 m/s 755 mmHg 71%
    21:00 +2°C° 0 mm 3 m/s 755 mmHg 73%
    22:00 +2°C° 0 mm 3 m/s 755 mmHg 76%
    23:00 +1°C° 0 mm 4 m/s 756 mmHg 78%

    28 Octombrie, Duminică

    Timp Temperatura Precipitaţii Vânt Presiune Umiditate
    00:00 0°C° 0 mm 4 m/s 756 mmHg 80%
    01:00 +1°C° 0 mm 5 m/s 756 mmHg 79%
    02:00 +1°C° 0 mm 5 m/s 755 mmHg 79%
    03:00 +1°C° 0 mm 6 m/s 755 mmHg 78%
    04:00 +2°C° 0 mm 7 m/s 755 mmHg 77%
    05:00 +2°C° 0 mm 7 m/s 754 mmHg 76%
    06:00 +2°C° 0 mm 8 m/s 754 mmHg 74%
    07:00 +3°C° 0.1 mm 9 m/s 753 mmHg 74%
    08:00 +5°C° 0.1 mm 10 m/s 753 mmHg 74%
    09:00 +6°C° 0.1 mm 11 m/s 753 mmHg 73%
    10:00 +6°C° 0.5 mm 10 m/s 752 mmHg 76%
    11:00 +7°C° 0.5 mm 10 m/s 752 mmHg 78%
    12:00 +7°C° 0.5 mm 9 m/s 752 mmHg 81%
    13:00 +8°C° 0.8 mm 9 m/s 752 mmHg 83%
    14:00 +8°C° 0.8 mm 9 m/s 752 mmHg 85%
    15:00 +10°C° 0.8 mm 9 m/s 752 mmHg 87%
    16:00 +10°C° 0.3 mm 8 m/s 752 mmHg 86%
    17:00 +10°C° 0.3 mm 8 m/s 753 mmHg 86%
    18:00 +10°C° 0.3 mm 7 m/s 753 mmHg 86%
    19:00 +10°C° 0.1 mm 7 m/s 754 mmHg 84%
    20:00 +9°C° 0.1 mm 6 m/s 755 mmHg 83%
    21:00 +9°C° 0.1 mm 5 m/s 755 mmHg 81%
    22:00 +8°C° 0 mm 5 m/s 756 mmHg 81%
    23:00 +8°C° 0 mm 4 m/s 757 mmHg 80%

    29 Octombrie, Luni

    Timp Temperatura Precipitaţii Vânt Presiune Umiditate
    00:00 +7°C° 0 mm 4 m/s 757 mmHg 80%
    01:00 +8°C° 0.1 mm 3 m/s 758 mmHg 80%
    02:00 +7°C° 0.1 mm 3 m/s 758 mmHg 79%
    03:00 +7°C° 0.1 mm 2 m/s 759 mmHg 79%
    04:00 +6°C° 0.2 mm 2 m/s 759 mmHg 78%
    05:00 +6°C° 0.2 mm 2 m/s 760 mmHg 78%
    06:00 +6°C° 0.2 mm 2 m/s 760 mmHg 77%
    07:00 +6°C° 0.1 mm 2 m/s 760 mmHg 75%
    08:00 +6°C° 0.1 mm 2 m/s 761 mmHg 72%
    09:00 +7°C° 0.1 mm 1 m/s 761 mmHg 69%
    10:00 +7°C° 0 mm 1 m/s 762 mmHg 66%
    11:00 +8°C° 0 mm 1 m/s 762 mmHg 64%
    12:00 +8°C° 0 mm 1 m/s 762 mmHg 62%
    13:00 +8°C° 0 mm 1 m/s 762 mmHg 62%
    14:00 +8°C° 0 mm 1 m/s 763 mmHg 61%
    15:00 +8°C° 0 mm 1 m/s 763 mmHg 61%
    16:00 +7°C° 0.1 mm 2 m/s 763 mmHg 64%
    17:00 +7°C° 0.1 mm 2 m/s 763 mmHg 67%
    18:00 +5°C° 0.1 mm 3 m/s 763 mmHg 70%
    19:00 +5°C° 0.1 mm 3 m/s 763 mmHg 72%
    20:00 +5°C° 0.1 mm 3 m/s 764 mmHg 73%
    21:00 +5°C° 0.1 mm 3 m/s 764 mmHg 75%
    22:00 +5°C° 0 mm 3 m/s 764 mmHg 77%
    23:00 +5°C° 0 mm 3 m/s 764 mmHg 80%
    Arată mai mult